Location: Consuma
(43.7833°N, 11.5833°E)
Time: 18:07:25
(UTC+00:00)

STARLINK-1050 - Pass Details

Date: 17 February 2020
Orbit: 548 x 551 km, 53.0° (Epoch: 01 April)

Event Time Altitude Azimuth Distance (km) Brightness Sun altitude
Exits shadow 04:13:15 46° 192° (SSW) 737 4.1 -21.8°
Drops below altitude 10° 04:16:40 10° 146° (SE) 1,814 6.6 -21.2°
Sets 04:18:56 0° 141° (SE) 2,703 7.7 -20.8°
